DMSP 5D-2 F11 DEB

Satellite information

Favourite Embed

Satellite Type and Status

DEBRISIN ORBIT

Key statistics

Satellite DMSP 5D-2 F11 DEB at a glance.

Uptime

12275

Days in orbit

Revolutions

≈ 14.5

Per day

Orbit

SSO

Sun Synchronous Orbit

Inclination

98.6

Latest

Satellite identification and parameters

Extended collection of information and parameters for DMSP 5D-2 F11 DEB.

Object identification

Identified? True

Debris? True

Object name: DMSP 5D-2 F11 DEB

International designator: 1991-082BV

Object number (NORAD): 29074

Object ID (CCSDS): 29074

Country: UNITED STATES OF AMERICA (US)

Current information (Y/N): Y

RCS size: SMALL

Orbital parameters

Period: 99.16 minutes

Inclination: 98.5894 deg

SMA: 7096.62 km

Apoapsis: 725.492 km

Periapsis: 711.477 km

RAAN: 262.8071 deg

Eccentricy: 0.0009874

Argument of periapsis: 140.4144 deg

Mean anomaly: 219.7773 deg

Mean motion: 14.52196818 rev/day

Mean motion (dot): 0.00005711 rev/day2

B* drag term: 0.0014177 1/REarth

Two-line elements (TLE)

Creation date: July 5, 2025, 6:56 a.m.

Reference frame: TEME

Reference center: EARTH

Epoch: July 4, 2025, 11:36 a.m. UTC

TLE line 0: 0 DMSP 5D-2 F11 DEB

TLE line 1: 1 29074U 91082BV 25185.48351958 .00005711 00000-0 14177-2 0 9992

TLE line 2: 2 29074 98.5894 262.8071 0009874 140.4144 219.7773 14.52196818 83203

Live tracking on map

Real-time ground track for satellite DMSP 5D-2 F11 DEB.

In-orbit conjunctions

A list of the most updated potential collisions computed for object DMSP 5D-2 F11 DEB.

Target Orbit TCA Probability of collision Miss distance Type
CZ-6A DEB LEO 2024-11-21 06:45:13 0.0001085276 503.0 (m) DEBRIS
IRIDIUM 33 DEB LEO 2024-11-10 21:38:57 0.0001054846 575.0 (m) DEBRIS

Associated space launch

Military meteorological satellite

DMSP 5D-2 F11 DEB was lifted into orbit during the mission ‘Atlas E | DMSP-5D2 F11’, on board a Atlas E space rocket.

The launch took place on Nov. 28, 1991, 1:23 p.m. from Space Launch Complex 3W.

For more information about the launch, click the button.

Launch to space Atlas E | DMSP-5D2 F11
Atlas E | DMSP-5D2 F11

Agency: N/A

Status: Launch Successful

Launch date: Nov. 28, 1991, 1:23 p.m. UTC

Rocket: Atlas E

Launch pad: Space Launch Complex 3W

Location: Vandenberg SFB, CA, USA

...

Latest news about this satellite

There are no fresh news available about this satellite. Check back as we update our databases every day.


Newsletter sign-up

Weekly statistics, charts and insights to help you stay on top of the space industry.